[Iaude] MPEC U43: 2016 UO5 [a=0.90,e=0.20,i=6.7,H=25.8]

mpec at si.edu mpec at si.edu
Sat Oct 22 19:43:58 EDT 2016


M.P.E.C. 2016-U43                                Issued 2016 Oct. 22, 23:37 UT
 
     The Minor Planet Electronic Circulars contain information on unusual
         minor planets and routine data on comets.  They are published
    on behalf of Division F of the International Astronomical Union by the
          Minor Planet Center, Smithsonian Astrophysical Observatory,
                          Cambridge, MA 02138, U.S.A.

             Prepared using the Tamkin Foundation Computer Network

                              MPC at CFA.HARVARD.EDU
            URL http://www.minorplanetcenter.net/    ISSN 1523-6714


                                   2016 UO5
 
Observations:
     K16U05O* C2016 10 20.32679 02 25 58.61 +15 22 15.4          20.6 VqEU043G96
     K16U05O  C2016 10 20.32985 02 25 57.62 +15 21 56.2          20.6 VqEU043G96
     K16U05O  C2016 10 20.33251 02 25 56.69 +15 21 40.2          20.9 VqEU043G96
     K16U05O  C2016 10 20.33517 02 25 55.68 +15 21 25.1          21.1 VqEU043G96
     K16U05O  C2016 10 20.39678 02 25 34.09 +15 15 12.6                qEU043G96
     K16U05O  C2016 10 20.39741 02 25 33.76 +15 15 09.5          21.3 VqEU043G96
     K16U05O  C2016 10 20.39806 02 25 33.59 +15 15 05.9          20.8 VqEU043G96
     K16U05O  C2016 10 20.39869 02 25 33.36 +15 15 02.9          20.6 VqEU043G96
     K16U05O KC2016 10 20.49499 02 25 00.34 +15 05 14.5          20.5 RoEU043291
     K16U05O KC2016 10 20.49983 02 24 58.75 +15 04 44.9          20.1 RoEU043291
     K16U05O KC2016 10 20.50468 02 24 57.14 +15 04 14.9          21.2 RoEU043291
     K16U05O KC2016 10 21.01734 02 22 21.52 +14 12 25.1          20.9 RqEU043J95
     K16U05O FC2016 10 21.05454 02 22 08.73 +14 08 38.7          21.2 RqEU043J95
     K16U05O  C2016 10 21.28193 02 20 59.83 +13 46 11.2          20.5 VqEU043G96
     K16U05O  C2016 10 21.28622 02 20 58.38 +13 45 44.9          21.1 VqEU043G96
     K16U05O  C2016 10 21.29050 02 20 56.81 +13 45 17.6          21.3 VqEU043G96
     K16U05O  C2016 10 21.29479 02 20 55.29 +13 44 52.8          21.7 VqEU043G96
     K16U05O  C2016 10 22.29296 02 15 42.12 +12 03 21.6          22.5 VqEU043I52
     K16U05O  C2016 10 22.29419 02 15 41.71 +12 03 13.5          21.3 VqEU043I52
     K16U05O  C2016 10 22.29622 02 15 40.98 +12 03 00.8          21.7 VqEU043I52
     K16U05O  C2016 10 22.29745 02 15 40.57 +12 02 54.2          21.4 VqEU043I52
     K16U05O KC2016 10 22.89202 02 12 36.84 +11 01 45.4          21.2 RqEU043104
     K16U05O KC2016 10 22.90036 02 12 34.01 +11 00 54.4          21.0 RqEU043104
     K16U05O KC2016 10 22.90595 02 12 32.09 +11 00 20.6          20.8 RqEU043104
 
Observer details:
104 San Marcello Pistoiese.  Observers P. Bacci, M. Maestripieri.  Measurers
    P. Bacci, L. Tesi, G. Fagioli.  0.60-m f/4 reflector + CCD.
291 LPL/Spacewatch II.  Observer J. V. Scotti.  1.8-m f/2.7 reflector + CCD.
G96 Mt. Lemmon Survey.  Observer R. A. Kowalski.  Measurers E. J. Christensen,
    D. C. Fuls, A. R. Gibbs, A. D. Grauer, J. A. Johnson, R. A. Kowalski,
    S. M. Larson, G. J. Leonard, R. G. Matheny, R. L. Seaman, F. C. Shelly.
    1.5-m reflector + 10K CCD.
I52 Steward Observatory, Mt. Lemmon Station.  Observer A. R. Gibbs.  Measurers
    E. J. Christensen, D. C. Fuls, A. R. Gibbs, A. D. Grauer, J. A. Johnson,
    R. A. Kowalski, S. M. Larson, G. J. Leonard, R. G. Matheny, R. L. Seaman,
    F. C. Shelly.  1.0-m reflector + CCD.
J95 Great Shefford.  Observer P. Birtwhistle.  0.40-m f/6.0 Schmidt-Cassegrain
    + CCD.
 
Orbital elements:
2016 UO5                                                 Earth MOID = 0.0689 AU
Epoch 2016 July 31.0 TT = JDT 2457600.5                 MPC
M  82.58117              (2000.0)            P               Q
n   1.15756248     Peri.    1.63577     -0.86362564     +0.50103909
a   0.8983380      Node   208.64865     -0.46384446     -0.83306583
e   0.2001281      Incl.    6.68031     -0.19748183     -0.23443794
P   0.85           H   25.8           G   0.15           U   8
Residuals in seconds of arc
161020 G96  0.2-  0.1+    161020 291  0.4-  0.6-    161021 G96  0.3-  0.4+
161020 G96  1.2+  0.8-    161020 291  0.0   0.5-    161022 I52  0.5-  0.1+
161020 G96  1.3+  0.8-    161020 291  0.0   0.7-    161022 I52  0.2-  0.5-
161020 G96  0.3+  0.0     161021 J95  0.1-  0.8+    161022 I52  0.4-  0.8-
161020 G96 (1.5+  0.8-)   161021 J95  0.8-  0.0     161022 I52  0.1-  0.1+
161020 G96  0.1-  0.1-    161021 G96  0.1-  1.1+    161022 104  0.7+  0.2-
161020 G96  0.8+  0.3+    161021 G96  0.8+  0.7+    161022 104  0.8+  0.3-
161020 G96  0.6+  1.1+    161021 G96  0.1-  0.7-    161022 104  0.6+  0.0

Ephemeris:
2016 UO5                 a,e,i = 0.90, 0.20, 7                   q = 0.7186
Date    TT    R. A. (2000) Decl.     Delta      r     Elong.  Phase     V
2016 09 22    04 12 03.8 +42 56 05   0.1325  1.0536   108.7    64.5    23.8
...
2016 10 07    03 29 53.4 +33 17 10   0.1004  1.0715   133.9    42.2    22.6
...
2016 10 15    02 53 27.3 +23 41 58   0.08806 1.0764   153.1    24.8    21.8
...
2016 10 21    02 22 27.1 +14 15 17   0.08373 1.0779   169.8     9.4    21.2
2016 10 22    02 17 13.2 +12 33 55   0.08352 1.0780   172.5     7.0    21.1
2016 10 23    02 12 00.9 +10 51 46   0.08347 1.0780   174.8     4.8    21.0
...
2016 10 29    01 42 13.5 +00 52 08   0.08649 1.0771   165.2    13.6    21.4
...
2016 11 06    01 09 49.3 -09 59 42   0.09824 1.0731   144.9    32.1    22.3
...
2016 11 21    00 36 16.2 -20 57 06   0.1327  1.0568   118.1    55.6    23.6

A. U. Tomatic                (C) Copyright 2016 MPC           M.P.E.C. 2016-U43




More information about the Iaude mailing list